Flag Weather past 2 weeks in Manizales, Colombia

Now
68 °F

Passing clouds.


Feels Like: 68 °F
Forecast: 53 / 77 °F
Wind: 5 mph from East

Location: Pereira / Matecana

Current Time: Nov 27, 2014 at 11:43:12 PM

Latest Report: Nov 27, 2014 at 11:00 PM


Visibility: N/A

Pressure: 30.00 "Hg

Humidity: 83%

Dew point: 63 °F

Location of ManizalesLocation

Historic Weather in Manizales — Graph

°F

Manizales temperature yesterday

Maximum temperature yesterday: 70 °F (at 2:00 PM)
Minimum temperature yesterday: 64 °F (at 8:00 AM)
Average temperature yesterday: 67 °F

Past Weeks' High & Low Weather Summary

 TemperatureHumidityPressure
High81 °F (Nov 20, 2:00 PM)100% (Nov 18, 12:00 AM)30.19 "Hg (Nov 18, 12:00 AM)
Low63 °F (Nov 13, 5:00 AM)54% (Nov 23, 4:00 PM)29.90 "Hg (Nov 23, 4:00 PM)
Average70 °F79%30.05 "Hg
* Reported Nov 12 10:00 PM — Nov 27 10:00 PM, Manizales, Weather by CustomWeather, © 2014

Note: Actual official high and low records may vary slightly from our data, if they occured in-between our weather recording intervals... More about our weather records

Advertising

Manizales weather history for previous 24 hours

 ConditionsComfort  
Time TempWeatherWind HumidityBarometerVisibility
10:00 PM
Nov 27
70 °FPassing clouds.6 mph83%30.01 "HgN/A
9:00 PM70 °FPassing clouds.7 mph83%30.00 "HgN/A
8:00 PM72 °FPassing clouds.6 mph83%29.98 "HgN/A
7:00 PM73 °FPassing clouds.2 mph78%29.94 "HgN/A
6:00 PM75 °FPassing clouds.3 mph69%29.93 "HgN/A
5:00 PM79 °FScattered clouds.2 mph61%29.93 "HgN/A
4:00 PM81 °FScattered clouds.2 mph58%29.92 "HgN/A
3:00 PM81 °FScattered clouds.3 mph58%29.95 "HgN/A
2:00 PM79 °FScattered clouds.5 mph61%29.98 "HgN/A
1:00 PM77 °FScattered clouds.5 mph65%30.01 "HgN/A
12:00 PM75 °FScattered clouds.2 mph74%30.04 "HgN/A
11:00 AM73 °FScattered clouds.6 mph74%30.08 "HgN/A
10:00 AM72 °FScattered clouds.5 mph83%30.10 "HgN/A
9:00 AM70 °FScattered clouds.2 mph88%30.13 "HgN/A
8:00 AM66 °FBroken clouds.2 mph94%30.11 "Hg1 mi
7:00 AM64 °FBroken clouds.2 mph100%30.10 "Hg1 mi
6:00 AM64 °FBroken clouds.2 mph100%30.08 "Hg2 mi
5:00 AM64 °FPartly cloudy.6 mph100%30.07 "Hg2 mi
1:00 AM64 °FPartly cloudy.2 mph94%30.07 "Hg5 mi
12:00 AM64 °FPartly cloudy.2 mph100%30.10 "Hg3 mi
11:00 PM
Nov 26
64 °FPartly cloudy.5 mph100%30.12 "Hg2 mi
Weather by CustomWeather, © 2014

See weather overviewHow to use our weather pages